Time,TemperatureF,DewpointF,PressureIn,WindDirection,WindDirectionDegrees,WindSpeedMPH,WindSpeedGustMPH,Humidity,HourlyPrecipIn,Conditions,Clouds,dailyrainin,SoftwareType,DateUTC
2013-01-30 00:02:00,34.0,29.0,29.49,North,355,0.0,0.0,82,-99.99,,,-99.99,,2013-01-30 06:02:00,
2013-01-30 00:11:00,34.0,29.0,29.49,North,355,0.0,0.0,82,-99.99,,,-99.99,,2013-01-30 06:11:00,
2013-01-30 00:21:00,34.0,29.0,29.49,North,355,0.0,0.0,82,-99.99,,,-99.99,,2013-01-30 06:21:00,
2013-01-30 00:32:00,34.0,29.0,29.46,NNW,334,0.0,0.0,82,-99.99,,,-99.99,,2013-01-30 06:32:00,
2013-01-30 00:41:00,34.0,29.0,29.46,NNW,334,0.0,0.0,82,-99.99,,,-99.99,,2013-01-30 06:41:00,
2013-01-30 00:52:00,34.0,29.0,29.46,NNW,334,0.0,0.0,82,-99.99,,,-99.99,,2013-01-30 06:52:00,
2013-01-30 01:02:00,34.0,29.0,29.44,NNE,13,0.0,0.0,82,-99.99,,,-99.99,,2013-01-30 07:02:00,
2013-01-30 01:11:00,34.0,29.0,29.44,NNE,13,0.0,0.0,82,-99.99,,,-99.99,,2013-01-30 07:11:00,
2013-01-30 01:21:00,34.0,29.0,29.44,NNE,13,0.0,0.0,82,-99.99,,,-99.99,,2013-01-30 07:21:00,
2013-01-30 01:32:00,34.0,29.0,29.44,NNE,13,0.0,0.0,82,-99.99,,,-99.99,,2013-01-30 07:32:00,
2013-01-30 01:41:00,34.0,29.0,29.44,NNE,13,0.0,0.0,82,-99.99,,,-99.99,,2013-01-30 07:41:00,
2013-01-30 02:52:00,33.0,28.0,29.40,NNE,22,0.0,0.0,80,-99.99,,,-99.99,,2013-01-30 08:52:00,
2013-01-30 03:01:00,33.0,28.0,29.40,North,0,0.0,0.0,80,-99.99,,,-99.99,,2013-01-30 09:01:00,
2013-01-30 03:11:00,33.0,28.0,29.40,North,0,0.0,0.0,80,-99.99,,,-99.99,,2013-01-30 09:11:00,
2013-01-30 03:21:00,33.0,27.0,29.40,North,0,0.0,0.0,79,-99.99,,,-99.99,,2013-01-30 09:21:00,
2013-01-30 03:32:00,33.0,27.0,29.40,North,0,0.0,0.0,79,-99.99,,,-99.99,,2013-01-30 09:32:00,
2013-01-30 03:42:00,33.0,27.0,29.40,North,0,0.0,0.0,79,-99.99,,,-99.99,,2013-01-30 09:42:00,
2013-01-30 03:51:00,33.0,27.0,29.40,NE,45,0.0,0.0,79,-99.99,,,-99.99,,2013-01-30 09:51:00,
2013-01-30 04:01:00,33.0,28.0,29.40,North,0,0.0,0.0,80,-99.99,,,-99.99,,2013-01-30 10:01:00,
2013-01-30 04:11:00,33.0,28.0,29.40,North,0,0.0,0.0,80,-99.99,,,-99.99,,2013-01-30 10:11:00,
2013-01-30 04:21:00,33.0,28.0,29.40,North,0,0.0,0.0,80,-99.99,,,-99.99,,2013-01-30 10:21:00,
2013-01-30 04:32:00,33.0,28.0,29.40,North,0,0.0,0.0,80,-99.99,,,-99.99,,2013-01-30 10:32:00,
2013-01-30 04:41:00,33.0,28.0,29.40,North,0,0.0,0.0,80,-99.99,,,-99.99,,2013-01-30 10:41:00,
2013-01-30 04:52:00,33.0,28.0,29.40,North,0,0.0,0.0,80,-99.99,,,-99.99,,2013-01-30 10:52:00,
2013-01-30 05:02:00,32.0,27.0,29.39,NW,320,0.0,0.0,81,-99.99,,,-99.99,,2013-01-30 11:02:00,
2013-01-30 05:11:00,32.0,27.0,29.39,NW,320,0.0,0.0,81,-99.99,,,-99.99,,2013-01-30 11:11:00,
2013-01-30 05:22:00,32.0,27.0,29.39,NW,320,0.0,0.0,81,-99.99,,,-99.99,,2013-01-30 11:22:00,
2013-01-30 05:32:00,32.0,27.0,29.40,North,0,0.0,0.0,82,-99.99,,,-99.99,,2013-01-30 11:32:00,
2013-01-30 05:42:00,32.0,27.0,29.40,North,0,0.0,0.0,82,-99.99,,,-99.99,,2013-01-30 11:42:00,
2013-01-30 05:52:00,32.0,27.0,29.39,NNE,13,0.0,0.0,82,-99.99,,,-99.99,,2013-01-30 11:52:00,
2013-01-30 06:02:00,32.0,27.0,29.37,North,0,0.0,0.0,82,-99.99,,,-99.99,,2013-01-30 12:02:00,
2013-01-30 06:12:00,32.0,27.0,29.37,North,0,0.0,0.0,82,-99.99,,,-99.99,,2013-01-30 12:12:00,
2013-01-30 06:22:00,31.0,26.0,29.36,North,0,0.0,0.0,82,-99.99,,,-99.99,,2013-01-30 12:22:00,
2013-01-30 06:32:00,31.0,26.0,29.36,North,0,0.0,0.0,82,-99.99,,,-99.99,,2013-01-30 12:32:00,
2013-01-30 06:42:00,31.0,26.0,29.36,North,0,0.0,0.0,82,-99.99,,,-99.99,,2013-01-30 12:42:00,
2013-01-30 07:03:00,30.0,25.0,29.34,NW,315,0.0,0.0,82,-99.99,,,-99.99,,2013-01-30 13:03:00,
2013-01-30 07:12:00,30.0,25.0,29.34,NW,315,0.0,0.0,82,-99.99,,,-99.99,,2013-01-30 13:12:00,
2013-01-30 07:23:00,30.0,25.0,29.34,NW,315,0.0,0.0,82,-99.99,,,-99.99,,2013-01-30 13:23:00,
2013-01-30 07:33:00,30.0,25.0,29.34,NW,315,0.0,0.0,82,-99.99,,,-99.99,,2013-01-30 13:33:00,
2013-01-30 08:02:00,29.0,24.0,29.35,NE,45,0.0,0.0,81,-99.99,,,-99.99,,2013-01-30 14:02:00,
2013-01-30 08:12:00,29.0,24.0,29.35,NE,45,0.0,0.0,81,-99.99,,,-99.99,,2013-01-30 14:12:00,
2013-01-30 08:23:00,29.0,24.0,29.35,NE,45,0.0,0.0,81,-99.99,,,-99.99,,2013-01-30 14:23:00,
2013-01-30 08:33:00,29.0,24.0,29.35,NE,45,0.0,0.0,81,-99.99,,,-99.99,,2013-01-30 14:33:00,
2013-01-30 08:42:00,29.0,24.0,29.35,NE,45,0.0,0.0,81,-99.99,,,-99.99,,2013-01-30 14:42:00,
2013-01-30 08:53:00,29.0,24.0,29.35,North,0,0.0,0.0,82,-99.99,,,-99.99,,2013-01-30 14:53:00,
2013-01-30 09:03:00,29.0,24.0,29.35,North,0,0.0,0.0,82,-99.99,,,-99.99,,2013-01-30 15:03:00,
2013-01-30 09:12:00,29.0,24.0,29.35,North,0,0.0,0.0,82,-99.99,,,-99.99,,2013-01-30 15:12:00,
2013-01-30 09:23:00,29.0,24.0,29.35,North,0,0.0,0.0,82,-99.99,,,-99.99,,2013-01-30 15:23:00,
2013-01-30 09:33:00,29.0,24.0,29.35,NW,324,0.0,0.0,80,-99.99,,,-99.99,,2013-01-30 15:33:00,
2013-01-30 09:43:00,29.0,24.0,29.35,NW,324,0.0,0.0,80,-99.99,,,-99.99,,2013-01-30 15:43:00,
2013-01-30 09:53:00,29.0,24.0,29.35,NW,324,0.0,0.0,80,-99.99,,,-99.99,,2013-01-30 15:53:00,
2013-01-30 10:03:00,29.0,24.0,29.33,NNE,33,0.0,0.0,80,-99.99,,,-99.99,,2013-01-30 16:03:00,
2013-01-30 10:12:00,29.0,24.0,29.33,NNE,33,0.0,0.0,80,-99.99,,,-99.99,,2013-01-30 16:12:00,
2013-01-30 10:23:00,29.0,24.0,29.32,NNE,18,0.0,0.0,80,-99.99,,,-99.99,,2013-01-30 16:23:00,
2013-01-30 10:32:00,28.0,23.0,29.34,NW,310,0.0,0.0,81,-99.99,,,-99.99,,2013-01-30 16:32:00,
2013-01-30 10:42:00,28.0,23.0,29.34,NW,310,0.0,0.0,81,-99.99,,,-99.99,,2013-01-30 16:42:00,
2013-01-30 10:52:00,28.0,23.0,29.34,NW,310,0.0,0.0,81,-99.99,,,-99.99,,2013-01-30 16:52:00,
2013-01-30 11:02:00,28.0,22.0,29.33,NE,54,0.0,0.0,79,-99.99,,,-99.99,,2013-01-30 17:02:00,
2013-01-30 11:12:00,28.0,22.0,29.33,NE,54,0.0,0.0,79,-99.99,,,-99.99,,2013-01-30 17:12:00,
2013-01-30 11:22:00,28.0,22.0,29.33,NW,315,0.0,0.0,79,-99.99,,,-99.99,,2013-01-30 17:22:00,
2013-01-30 11:32:00,28.0,22.0,29.33,NW,315,0.0,0.0,79,-99.99,,,-99.99,,2013-01-30 17:32:00,
2013-01-30 11:42:00,28.0,22.0,29.33,NW,315,0.0,0.0,79,-99.99,,,-99.99,,2013-01-30 17:42:00,
2013-01-30 11:53:00,29.0,23.0,29.33,North,10,0.0,0.0,79,-99.99,,,-99.99,,2013-01-30 17:53:00,
2013-01-30 12:02:00,29.0,23.0,29.32,ENE,76,0.0,0.0,79,-99.99,,,-99.99,,2013-01-30 18:02:00,
2013-01-30 12:12:00,29.0,23.0,29.32,ENE,76,0.0,0.0,79,-99.99,,,-99.99,,2013-01-30 18:12:00,
2013-01-30 12:22:00,29.0,23.0,29.32,ENE,76,0.0,0.0,79,-99.99,,,-99.99,,2013-01-30 18:22:00,
2013-01-30 12:33:00,29.0,23.0,29.32,ENE,76,0.0,0.0,79,-99.99,,,-99.99,,2013-01-30 18:33:00,
2013-01-30 13:03:00,29.0,22.0,29.31,NW,315,0.0,0.0,75,-99.99,,,-99.99,,2013-01-30 19:03:00,
2013-01-30 13:12:00,29.0,22.0,29.31,NW,315,0.0,0.0,75,-99.99,,,-99.99,,2013-01-30 19:12:00,
2013-01-30 13:22:00,29.0,22.0,29.30,NE,53,0.0,0.0,75,-99.99,,,-99.99,,2013-01-30 19:22:00,
2013-01-30 13:32:00,29.0,21.0,29.29,NNW,347,0.0,0.0,72,-99.99,,,-99.99,,2013-01-30 19:32:00,
2013-01-30 13:43:00,29.0,21.0,29.29,NNW,347,0.0,0.0,72,-99.99,,,-99.99,,2013-01-30 19:43:00,
2013-01-30 13:52:00,29.0,21.0,29.29,NE,49,0.0,0.0,73,-99.99,,,-99.99,,2013-01-30 19:52:00,
2013-01-30 14:03:00,29.0,21.0,29.30,NE,45,0.0,0.0,73,-99.99,,,-99.99,,2013-01-30 20:03:00,
2013-01-30 14:12:00,29.0,21.0,29.30,NE,45,0.0,0.0,73,-99.99,,,-99.99,,2013-01-30 20:12:00,
2013-01-30 14:22:00,29.0,22.0,29.29,NNE,33,0.0,0.0,74,-99.99,,,-99.99,,2013-01-30 20:22:00,
2013-01-30 14:33:00,29.0,21.0,29.29,ENE,77,0.0,0.0,72,-99.99,,,-99.99,,2013-01-30 20:33:00,
2013-01-30 14:42:00,29.0,21.0,29.29,ENE,77,0.0,0.0,72,-99.99,,,-99.99,,2013-01-30 20:42:00,
2013-01-30 14:52:00,29.0,21.0,29.30,NE,50,0.0,0.0,72,-99.99,,,-99.99,,2013-01-30 20:52:00,
2013-01-30 15:03:00,28.0,20.0,29.31,East,85,0.0,0.0,72,-99.99,,,-99.99,,2013-01-30 21:03:00,
2013-01-30 15:12:00,28.0,20.0,29.31,East,85,0.0,0.0,72,-99.99,,,-99.99,,2013-01-30 21:12:00,
2013-01-30 15:23:00,28.0,20.0,29.31,NE,45,0.0,0.0,72,-99.99,,,-99.99,,2013-01-30 21:23:00,
2013-01-30 15:32:00,28.0,20.0,29.31,NE,45,0.0,0.0,72,-99.99,,,-99.99,,2013-01-30 21:32:00,
2013-01-30 15:42:00,28.0,20.0,29.31,NE,45,0.0,0.0,72,-99.99,,,-99.99,,2013-01-30 21:42:00,
2013-01-30 15:52:00,28.0,20.0,29.32,NE,54,0.0,0.0,73,-99.99,,,-99.99,,2013-01-30 21:52:00,
2013-01-30 16:03:00,28.0,21.0,29.32,NE,51,0.0,0.0,74,-99.99,,,-99.99,,2013-01-30 22:03:00,
2013-01-30 16:12:00,28.0,21.0,29.32,NE,51,0.0,0.0,74,-99.99,,,-99.99,,2013-01-30 22:12:00,
2013-01-30 16:22:00,28.0,21.0,29.33,East,81,0.0,0.0,74,-99.99,,,-99.99,,2013-01-30 22:22:00,
2013-01-30 16:32:00,27.0,19.0,29.33,North,5,0.0,0.0,72,-99.99,,,-99.99,,2013-01-30 22:32:00,
2013-01-30 16:42:00,27.0,19.0,29.33,North,5,0.0,0.0,72,-99.99,,,-99.99,,2013-01-30 22:42:00,
2013-01-30 16:52:00,26.0,18.0,29.33,NNE,32,0.0,0.0,72,-99.99,,,-99.99,,2013-01-30 22:52:00,
2013-01-30 17:02:00,25.0,18.0,29.36,East,96,0.0,0.0,74,-99.99,,,-99.99,,2013-01-30 23:02:00,
2013-01-30 17:12:00,25.0,18.0,29.36,East,96,0.0,0.0,74,-99.99,,,-99.99,,2013-01-30 23:12:00,
2013-01-30 17:22:00,25.0,18.0,29.36,East,96,0.0,0.0,74,-99.99,,,-99.99,,2013-01-30 23:22:00,
2013-01-30 17:32:00,24.0,17.0,29.35,NE,40,0.0,0.0,74,-99.99,,,-99.99,,2013-01-30 23:32:00,
2013-01-30 17:42:00,24.0,17.0,29.35,NE,40,0.0,0.0,74,-99.99,,,-99.99,,2013-01-30 23:42:00,
2013-01-30 17:52:00,24.0,17.0,29.35,ENE,63,0.0,0.0,74,-99.99,,,-99.99,,2013-01-30 23:52:00,
2013-01-30 18:02:00,23.0,15.0,29.36,NW,317,0.0,0.0,72,-99.99,,,-99.99,,2013-01-31 00:02:00,
2013-01-30 18:11:00,23.0,15.0,29.36,NW,317,0.0,0.0,72,-99.99,,,-99.99,,2013-01-31 00:11:00,
2013-01-30 18:22:00,22.0,14.0,29.37,ENE,69,0.0,0.0,72,-99.99,,,-99.99,,2013-01-31 00:22:00,
2013-01-30 18:32:00,22.0,14.0,29.37,ENE,67,0.0,0.0,72,-99.99,,,-99.99,,2013-01-31 00:32:00,
2013-01-30 18:42:00,22.0,14.0,29.37,ENE,67,0.0,0.0,72,-99.99,,,-99.99,,2013-01-31 00:42:00,
2013-01-30 18:52:00,22.0,14.0,29.37,SW,225,0.0,0.0,72,-99.99,,,-99.99,,2013-01-31 00:52:00,
2013-01-30 19:02:00,21.0,13.0,29.39,North,6,0.0,0.0,72,-99.99,,,-99.99,,2013-01-31 01:02:00,
2013-01-30 19:11:00,21.0,13.0,29.39,North,6,0.0,0.0,72,-99.99,,,-99.99,,2013-01-31 01:11:00,
2013-01-30 19:21:00,21.0,13.0,29.39,North,6,0.0,0.0,72,-99.99,,,-99.99,,2013-01-31 01:21:00,
2013-01-30 19:32:00,21.0,14.0,29.40,East,101,0.0,0.0,74,-99.99,,,-99.99,,2013-01-31 01:32:00,
2013-01-30 19:42:00,21.0,14.0,29.40,East,101,0.0,0.0,74,-99.99,,,-99.99,,2013-01-31 01:42:00,
2013-01-30 19:52:00,21.0,14.0,29.40,East,101,0.0,0.0,74,-99.99,,,-99.99,,2013-01-31 01:52:00,
2013-01-30 20:01:00,21.0,13.0,29.40,WNW,301,0.0,0.0,70,-99.99,,,-99.99,,2013-01-31 02:01:00,
2013-01-30 20:11:00,21.0,13.0,29.40,WNW,301,0.0,0.0,70,-99.99,,,-99.99,,2013-01-31 02:11:00,
2013-01-30 20:21:00,21.0,13.0,29.40,WNW,301,0.0,0.0,70,-99.99,,,-99.99,,2013-01-31 02:21:00,
2013-01-30 20:32:00,21.0,12.0,29.40,NE,55,0.0,0.0,69,-99.99,,,-99.99,,2013-01-31 02:32:00,
2013-01-30 20:41:00,21.0,12.0,29.40,NE,55,0.0,0.0,69,-99.99,,,-99.99,,2013-01-31 02:41:00,
2013-01-30 20:52:00,21.0,12.0,29.40,NE,55,0.0,0.0,69,-99.99,,,-99.99,,2013-01-31 02:52:00,
2013-01-30 21:03:00,20.0,11.0,29.41,NNW,328,0.0,0.0,68,-99.99,,,-99.99,,2013-01-31 03:03:00,
2013-01-30 21:11:00,20.0,11.0,29.41,NNW,328,0.0,0.0,68,-99.99,,,-99.99,,2013-01-31 03:11:00,
2013-01-30 21:21:00,20.0,11.0,29.41,NNW,328,0.0,0.0,68,-99.99,,,-99.99,,2013-01-31 03:21:00,
2013-01-30 21:32:00,19.0,11.0,29.42,East,98,0.0,0.0,69,-99.99,,,-99.99,,2013-01-31 03:32:00,
2013-01-30 21:41:00,19.0,11.0,29.42,East,98,0.0,0.0,69,-99.99,,,-99.99,,2013-01-31 03:41:00,
2013-01-30 21:52:00,19.0,11.0,29.42,East,98,0.0,0.0,69,-99.99,,,-99.99,,2013-01-31 03:52:00,
2013-01-30 22:02:00,18.0,9.0,29.43,SSW,207,0.0,0.0,68,-99.99,,,-99.99,,2013-01-31 04:02:00,
2013-01-30 22:11:00,18.0,9.0,29.43,SSW,207,0.0,0.0,68,-99.99,,,-99.99,,2013-01-31 04:11:00,
2013-01-30 22:22:00,18.0,9.0,29.43,SSW,207,0.0,0.0,68,-99.99,,,-99.99,,2013-01-31 04:22:00,
2013-01-30 22:31:00,18.0,9.0,29.43,SSW,207,0.0,0.0,68,-99.99,,,-99.99,,2013-01-31 04:31:00,
2013-01-30 22:41:00,18.0,9.0,29.43,SSW,207,0.0,0.0,68,-99.99,,,-99.99,,2013-01-31 04:41:00,
2013-01-30 23:03:00,18.0,10.0,29.44,WNW,303,0.0,0.0,70,-99.99,,,-99.99,,2013-01-31 05:03:00,
2013-01-30 23:11:00,18.0,10.0,29.44,WNW,303,0.0,0.0,70,-99.99,,,-99.99,,2013-01-31 05:11:00,
2013-01-30 23:22:00,18.0,10.0,29.45,SSW,204,0.0,0.0,70,-99.99,,,-99.99,,2013-01-31 05:22:00,
2013-01-30 23:32:00,18.0,10.0,29.45,SSW,204,0.0,0.0,70,-99.99,,,-99.99,,2013-01-31 05:32:00,
2013-01-30 23:41:00,18.0,10.0,29.46,WSW,238,0.0,0.0,70,-99.99,,,-99.99,,2013-01-31 05:41:00,
2013-01-30 23:52:00,18.0,10.0,29.46,WSW,238,0.0,0.0,70,-99.99,,,-99.99,,2013-01-31 05:52:00,